Regional Weather Roundup
Issued by NWS New Orleans/Baton Rouge, LA

Home | Current Version | Previous Version | Graphics & Text | Print | Product List | Glossary On
Versions: 1 2 3 4 5 6 7 8 9 10 11 12 13 14 15 16 17 18 19 20 21 22 23 24 25 26 27 28 29 30 31 32 33 34 35 36 37 38 39 40 41 42 43 44 45 46 47 48 49 50
153
ASUS44 KLIX 171505
RWRLIX
NEW ORLEANS REGIONAL WEATHER ROUNDUP
NATIONAL WEATHER SERVICE NEW ORLEANS LA
1000 AM CDT WED SEP 17 2014

NOTE: "FAIR" INDICATES FEW OR NO CLOUDS BELOW 12,000 FEET WITH NO
      SIGNIFICANT WEATHER AND/OR OBSTRUCTIONS TO VISIBILITY.
      SKY/WX - SKY CONDITION AND SIGNIFICANT WEATHER.
      TMP - AIR TEMPERATURE.     DP    - DEWPOINT TEMPERATURE.
      RH  - RELATIVE HUMIDITY.   PRES  - PRESSURE.
      HI  - HEAT INDEX.          WCI   - WIND CHILL INDEX.

*  THESE STATIONS ARE NOT NWS OR FAA STATIONS AND ARE NOT UNDER
   NWS QUALITY CONTROL.

LAZ038-040-048-061>063-065>067-069-171600-
SOUTHEAST LOUISIANA

CITY           SKY/WX    TMP DP  RH WIND       PRES   REMARKS
N.O. AUDUBON     N/A     87  76  69 MISG        N/A  HX  97
N.O. INTL ARPT PTSUNNY   83  73  72 N7        29.98S
N.O. LAKEFRONT MOSUNNY   81  72  74 NE3       29.99R
N.O. DOWNTOWN*   N/A     82  70  65 CALM      29.99S
SLIDELL        MOSUNNY   81  72  74 N6        29.98S
BATON ROUGE    MOSUNNY   79  72  79 NE5       30.00R
BOOTHVILLE     SUNNY     83  72  69 CALM      29.98S
BELLE CHASSE   PTSUNNY   83  72  69 NE5       29.97F
BOGALUSA*      PTSUNNY   79  71  78 CALM      30.00S
GALLIANO*      NOT AVBL
NEW ROADS*       N/A     76  73  91 CALM      30.00R
GONZALES*      CLOUDY    76  76  98 NE3       30.00R
HAMMOND*       CLOUDY    79  72  78 CALM      30.01S
HOUMA*         MOSUNNY   82  72  69 N3        29.99S
PORT FOURCHON* MOSUNNY   82  75  78 NE5       30.02R

$$

MSZ070-080>082-171600-
SOUTHERN MISSISSIPPI

CITY           SKY/WX    TMP DP  RH WIND       PRES   REMARKS
MCCOMB         PTSUNNY   77  71  82 SE3       30.00R
GULFPORT       PTSUNNY   78  72  81 N5        29.97F
BILOXI         SUNNY     77  73  85 NE6       29.98S
PASCAGOULA     PTSUNNY   79  72  79 N5        29.97F
STENNIS ARPT*  MOSUNNY   79  72  78 CALM      29.99S

$$

COASTAL OBSERVATIONS
LAKE AND NEARSHORE STATIONS

STATION/POSITION TIME  TEMP    WIND        PRES    WAVE
                       AIR SEA DIR/SP/G            HT/PER
                 (UTC) (F)     (DEG/KT/KT) (MB)    (FT/S)
PASCAGOULA       1500   78     340/  3/  4 1014.5
WAVELAND YACHT   1500   76      30/  3/  5 1014.5
GRAND ISLE       1500   83 86   40/  3/  4 1015.9
SOUTHWEST PASS   1500   84 90  310/  4/  5 1015.4
NEW CANAL        1500   79 81   20/  6/  7 1015.7
SHELL BEACH      1500   80 80   20/  5/  6 1015.1

OFFSHORE STATIONS

STATION/POSITION TIME  TEMP    WIND        PRES    WAVE
                       AIR SEA DIR/SP/G            HT/PER
                 (UTC) (F)     (DEG/KT/KT) (MB)    (FT/S)
64 S DAUPHIN ISL 1352   82 85   90/  2/  4 1015.2    2/ 4

$$




USA.gov is the U.S. government's official web portal to all federal, state and local government web resources and services.